Overview Statistics Trail Chart Weather Telemetry Raw packets
 

This is the latest recevied weather packets stored in our database for station/object ED4YAF-13. If no packets are shown the sender has not sent any weather packets the latest 10 day(s).

<< 24 25 26 27 28 29 30 >>
Time Temp. Humidity Pressure Rain* Wind** Luminosity Snow
1788011009 23.89° C 24% 1012.5 hPa - - - -
1788010091 23.33° C 23% 1013.1 hPa - - - -
1788009241 22.78° C 24% 1013.6 hPa - - - -
1788009186 22.78° C 24% 1013.6 hPa - - - -
1788008285 22.22° C 25% 1014 hPa - - - -
1788007393 22.22° C 26% 1013.9 hPa - - - -
1788006559 21.67° C 27% 1014.4 hPa - - - -
1788006487 21.67° C 27% 1014.4 hPa - - - -
1788005577 20.56° C 30% 1015.2 hPa - - - -
1788004677 21.67° C 30% 1014.6 hPa - - - -
1788003777 20° C 33% 1015.9 hPa - - - -
1788002877 21.11° C 32% 1014.9 hPa - - - -
1788002022 19.44° C 34% 1016.2 hPa - - - -
1788001977 19.44° C 34% 1016.2 hPa - - - -
1788001069 20° C 35% 1016 hPa - - - -
1788000177 18.33° C 36% 1017.3 hPa - - - -
1787999277 18.89° C 36% 1017 hPa - - - -
1787998377 17.78° C 38% 1017.9 hPa - - - -
1787997465 16.67° C 39% 1018.5 hPa - - - -
1787996572 16.67° C 40% 1018.7 hPa - - - -
1787995658 16.11° C 40% 1018.6 hPa - - - -
1787994753 16.11° C 40% 1018.9 hPa - - - -
1787993846 15.56° C 42% 1019.1 hPa - - - -
1787992946 14.44° C 43% 1019.5 hPa - - - -
1787992046 14.44° C 44% 1019.7 hPa - - - -

* Rain since midnight (hover to see other rain measurements)
** Current wind speed in m/s (hover to see current wind gust speed)